{"data":{"norad_id":27513,"epoch":"2026-09-19T22:24:35.028864Z","epoch_age_seconds":63133,"freshness":"FRESH","line1":"1 27513U 02041A   26262.93373876  .00000011  00000+0  00000+0 0  9999","line2":"2 27513   6.0371  71.7102 0003186 125.0862 202.3442  1.00271084 87978","mean_motion":1.00271084,"eccentricity":0.0003186,"inclination_deg":6.0371,"raan_deg":71.7102,"arg_perigee_deg":125.0862,"mean_anomaly_deg":202.3442,"bstar":0,"rev_number":8797,"period_min":1436.1069438523,"perigee_km":35773.357731869,"apogee_km":35800.225224296,"semimajor_km":42164.928478083,"source":"CELESTRAK","updated_at":"2026-09-20T09:00:35.514563Z"}}